[[{"header":{"parameterUnit":"m.s-1","parameterCategory":1,"la1":30.2991,"la2":30.254,"lo1":-89.0895,"lo2":-89.0444,"dy":0.0017,"dx":0.0017,"nx":28,"ny":28,"refTime":"2023-10-29T09:00:00:Z","depth":0,"parameterNumber":2,"parameterNumberName":"U-component_of_WINDS"},"data":[0,0,0,0,0,0,0,0,0,0,0,0,0,0,0,0,0,0,0,0,0,0,0,0,0,0,0,0,0,0,0,0,0,0,0,0,0,0,0,0,0,0,0,0,0,0,0,0,0,0,0,0,0,0,0,0,0,0,0.4528,0.4528,0,0.45,0.45,0.45,0.4529,0.453,0.4531,0.4532,0.4502,0.4501,0.4499,0,0,0,0,0,0,0,0,0,0,0,0,0,0.4605,0.4603,0.4528,0.4527,0.4527,0.45,0.45,0.45,0.4528,0.453,0.4531,0.4532,0.4503,0.4501,0.4499,0,0,0,0,0,0,0,0,0,0,0,0,0,0.4574,0.4603,0.4528,0.4538,0.4539,0.4501,0.45,0.45,0.4528,0.453,0.4531,0.4533,0.4504,0.4501,0.4498,0.4448,0,0,0.449,0.4489,0,0,0,0,0,0,0,0,0.4576,0.4571,0.4537,0.4537,0.4538,0.452,0.4517,0.4482,0.4528,0.4532,0.4532,0.4534,0.4507,0.4504,0.4495,0.4447,0.4445,0.449,0.4488,0.4487,0.4486,0,0,0,0,0,0,0,0.4578,0.4572,0.4517,0.4537,0.4537,0.4544,0.4542,0.451,0.451,0.4532,0.4534,0.453,0.4507,0.4498,0.4495,0.4445,0.449,0.4487,0.4486,0.4485,0.4355,0.4353,0,0,0,0,0,0,0.4579,0.4574,0.4518,0.4516,0.4561,0.4542,0.4539,0.4524,0.4511,0.451,0.4529,0.4532,0.4501,0.4498,0.4494,0.4434,0.4487,0.4484,0.4483,0.4357,0.4354,0.4352,0,0,0,0,0,0,0.458,0.4573,0.4519,0.4546,0.4539,0.4538,0.4522,0.4522,0.4513,0.4509,0.4509,0.4519,0.4503,0.4497,0.4459,0.4433,0.4483,0.4481,0.4359,0.4356,0.4353,0.4313,0,0,0,0,0,0,0.4582,0.4574,0.4555,0.4545,0.4538,0.4485,0.452,0.4521,0.4508,0.4511,0.4499,0.4499,0.4503,0.4463,0.4457,0.443,0.4479,0.4361,0.4357,0.4354,0.4317,0.431,0.4303,0,0,0,0,0,0.4585,0.4544,0.4553,0.4546,0.4514,0.4483,0.4479,0.4486,0.4506,0.4486,0.4484,0.4499,0.4438,0.4459,0.4452,0.4424,0.4363,0.4358,0.4354,0.432,0.4311,0.4304,0,0,0,0,0,0,0.455,0.4543,0.4553,0.4508,0.4496,0.4488,0.4464,0.4476,0.4458,0.4462,0.4471,0.4468,0.4427,0.4422,0.4447,0.4375,0.4403,0.4398,0.438,0.4371,0.4364,0.4366,0.4476,0,0,0,0,0,0.4537,0.4513,0.4508,0.4469,0.4462,0.4464,0.4451,0.4458,0.4446,0.4441,0.4435,0.4423,0.4401,0.4386,0.4366,0.4317,0.4315,0.4295,0.4288,0.4282,0.4277,0.4251,0.4242,0.4339,0.4339,0.4339,0,0,0.4509,0.4503,0.4487,0.4462,0.4453,0.4428,0.446,0.4432,0.4413,0.4436,0.44,0.4396,0.4383,0.4339,0.432,0.4334,0.425,0.4277,0.4273,0.427,0.4246,0.4237,0.4228,0.4336,0.4337,0.4337,0,0,0.4446,0.4439,0.4406,0.4397,0.4384,0.4386,0.4378,0.4369,0.4367,0.4331,0.4348,0.4327,0.4288,0.4278,0.4268,0.4204,0.4217,0.4197,0.416,0.4135,0.4127,0.4121,0.4097,0.4089,0.4192,0.4192,0.4192,0,0.4413,0.4377,0.4387,0.4358,0.4346,0.4367,0.4333,0.4324,0.4305,0.4297,0.4313,0.4266,0.4259,0.4213,0.4198,0.4189,0.418,0.4197,0.4128,0.4121,0.4115,0.4093,0.4084,0.4189,0.419,0.419,0.419,0,0.4337,0.4312,0.4286,0.4268,0.4254,0.4222,0.4227,0.4212,0.422,0.422,0.4184,0.4176,0.4154,0.4145,0.4152,0.41,0.4109,0.4127,0.4155,0.4103,0.4082,0.4074,0.4186,0.4187,0.4187,0.4188,0,0,0.4249,0.4238,0.4228,0.422,0.4209,0.4189,0.416,0.4139,0.4125,0.4112,0.4087,0.4055,0.4072,0.406,0.4067,0.4045,0.3994,0.4065,0.4065,0.4051,0.3937,0.3922,0.3912,0.4004,0.4002,0.4001,0.3937,0,0.4185,0.4133,0.4142,0.4091,0.4068,0.4089,0.4063,0.4053,0.4053,0.4033,0.4033,0.401,0.4034,0.4027,0.4006,0.4005,0.3971,0.401,0.398,0.3978,0.3981,0.3901,0.3886,0.3826,0.3929,0.3928,0.3927,0,0.4103,0.4087,0.4035,0.4028,0.4018,0.3995,0.3977,0.3958,0.3948,0.395,0.3938,0.3949,0.392,0.395,0.3909,0.3935,0.3924,0.3921,0.3919,0.3915,0.3948,0.3894,0.3807,0.3798,0.3914,0.3915,0.3916,0,0.4042,0.4009,0.3973,0.3966,0.3957,0.394,0.3936,0.3927,0.3915,0.39,0.3892,0.3873,0.3863,0.3848,0.3855,0.3876,0.3812,0.3843,0.3812,0.3812,0.3796,0.3797,0.3705,0.3791,0.3792,0.3792,0.3792,0,0.3969,0.3936,0.3946,0.3924,0.3887,0.3898,0.3862,0.386,0.3853,0.3831,0.3848,0.3827,0.3837,0.3817,0.3822,0.3787,0.3782,0.3782,0.3784,0.378,0.378,0.3771,0.3775,0.3789,0.379,0.379,0.3791,0,0.3895,0.39,0.3862,0.3858,0.3856,0.3829,0.3826,0.3805,0.3807,0.3779,0.3773,0.3776,0.3753,0.3759,0.3733,0.3737,0.3693,0.37,0.3696,0.3697,0.3666,0.3668,0.3564,0.3551,0.3647,0.3646,0.3645,0,0.3847,0.3822,0.3815,0.3802,0.3796,0.3775,0.3762,0.3773,0.3759,0.3747,0.3727,0.3706,0.369,0.3652,0.3652,0.3633,0.3639,0.3604,0.3636,0.3633,0.3637,0.3638,0.3635,0.3597,0.3596,0.3595,0.3594,0,0.3761,0.3765,0.3747,0.373,0.3715,0.3702,0.369,0.3678,0.3688,0.3672,0.3649,0.3637,0.3612,0.359,0.3573,0.3569,0.3582,0.3585,0.3576,0.3571,0.3569,0.3569,0.3677,0.3586,0.3587,0.3588,0.3588,0.3589,0.3697,0.3676,0.3668,0.3648,0.3641,0.363,0.361,0.3611,0.3592,0.3572,0.358,0.3554,0.3546,0.3524,0.3518,0.3497,0.351,0.3498,0.3495,0.3492,0.3487,0.3574,0.3494,0.3495,0.3495,0.3495,0.3495,0,0.3611,0.3608,0.3589,0.3573,0.3557,0.3573,0.3562,0.3547,0.3523,0.3515,0.3499,0.3473,0.3452,0.3451,0.3433,0.3416,0.3422,0.3411,0.3411,0.341,0.3477,0.3486,0.3406,0.3406,0.3406,0.3406,0.3406,0.3406,0.3565,0.353,0.3534,0.3496,0.3493,0.3467,0.3459,0.3449,0.3442,0.3413,0.3396,0.3396,0.3391,0.3372,0.3354,0.3354,0.3346,0.3332,0.3334,0.3396,0.3405,0.3414,0.3422,0.333,0.333,0.3269,0.3268,0.3268]},{"header":{"parameterUnit":"m.s-1","parameterCategory":1,"la1":30.2991,"la2":30.254,"lo1":-89.0895,"lo2":-89.0444,"dy":0.0017,"dx":0.0017,"nx":28,"ny":28,"refTime":"2023-10-29T09:00:00:Z","depth":0,"parameterNumber":3,"parameterNumberName":"V-component_of_WINDS"},"data":[0,0,0,0,0,0,0,0,0,0,0,0,0,0,0,0,0,0,0,0,0,0,0,0,0,0,0,0,0,0,0,0,0,0,0,0,0,0,0,0,0,0,0,0,0,0,0,0,0,0,0,0,0,0,0,0,0,0,-1.3373,-1.3373,0,-1.3347,-1.3346,-1.3346,-1.3329,-1.3329,-1.3329,-1.3329,-1.33,-1.33,-1.3299,0,0,0,0,0,0,0,0,0,0,0,0,0,-1.3409,-1.3408,-1.3373,-1.3372,-1.3372,-1.3347,-1.3346,-1.3346,-1.3329,-1.3329,-1.3329,-1.3329,-1.3301,-1.33,-1.3299,0,0,0,0,0,0,0,0,0,0,0,0,0,-1.3389,-1.3408,-1.3373,-1.3361,-1.3359,-1.3347,-1.3346,-1.3346,-1.3329,-1.3329,-1.3329,-1.3329,-1.3301,-1.33,-1.3299,-1.3295,0,0,-1.3296,-1.3295,0,0,0,0,0,0,0,0,-1.339,-1.3388,-1.3363,-1.3362,-1.336,-1.3341,-1.3348,-1.3329,-1.3329,-1.3341,-1.3329,-1.3329,-1.3314,-1.3312,-1.3307,-1.3294,-1.3293,-1.3296,-1.3295,-1.3295,-1.3294,0,0,0,0,0,0,0,-1.3391,-1.3389,-1.3362,-1.3363,-1.3361,-1.3357,-1.3354,-1.3345,-1.3328,-1.334,-1.3338,-1.3336,-1.3313,-1.3308,-1.3306,-1.3292,-1.3296,-1.3295,-1.3294,-1.3294,-1.3279,-1.3279,0,0,0,0,0,0,-1.3395,-1.339,-1.3363,-1.3362,-1.3375,-1.3356,-1.3353,-1.3347,-1.3328,-1.3325,-1.3336,-1.3335,-1.331,-1.3308,-1.3305,-1.3302,-1.3295,-1.3294,-1.3293,-1.3279,-1.3279,-1.3279,0,0,0,0,0,0,-1.3396,-1.3393,-1.3364,-1.3375,-1.3372,-1.3356,-1.335,-1.3347,-1.3342,-1.3326,-1.3322,-1.3334,-1.331,-1.3307,-1.3299,-1.3301,-1.3293,-1.3292,-1.3278,-1.3279,-1.3279,-1.3295,0,0,0,0,0,0,-1.3397,-1.3393,-1.3391,-1.3376,-1.3371,-1.3358,-1.335,-1.3346,-1.334,-1.3339,-1.3323,-1.332,-1.3309,-1.3301,-1.3298,-1.3299,-1.3292,-1.3278,-1.3278,-1.3279,-1.3294,-1.3295,-1.3297,0,0,0,0,0,-1.3398,-1.3395,-1.3391,-1.3388,-1.3368,-1.3358,-1.3356,-1.3344,-1.3341,-1.3339,-1.3329,-1.332,-1.3301,-1.33,-1.3297,-1.3298,-1.3278,-1.3278,-1.3279,-1.3293,-1.3295,-1.3297,0,0,0,0,0,0,-1.341,-1.3393,-1.3388,-1.338,-1.3371,-1.3355,-1.3353,-1.3346,-1.3337,-1.3336,-1.3322,-1.3318,-1.3312,-1.3304,-1.3303,-1.3295,-1.3289,-1.3288,-1.3301,-1.3302,-1.3304,-1.3306,-1.3291,0,0,0,0,0,-1.3412,-1.3406,-1.3391,-1.3386,-1.3381,-1.3368,-1.3363,-1.3356,-1.3345,-1.3341,-1.333,-1.332,-1.3312,-1.3306,-1.3298,-1.3293,-1.329,-1.3292,-1.3294,-1.3295,-1.3295,-1.3294,-1.3296,-1.328,-1.328,-1.328,0,0,-1.3416,-1.3406,-1.3402,-1.3388,-1.338,-1.3374,-1.3365,-1.3358,-1.3354,-1.3339,-1.3332,-1.3324,-1.3312,-1.3306,-1.3303,-1.3299,-1.3299,-1.3296,-1.3297,-1.3296,-1.3295,-1.3296,-1.3298,-1.3281,-1.3281,-1.3281,0,0,-1.3419,-1.341,-1.3406,-1.3399,-1.3388,-1.338,-1.3379,-1.3365,-1.336,-1.3352,-1.3343,-1.3337,-1.3323,-1.3316,-1.331,-1.3315,-1.3307,-1.3313,-1.332,-1.3319,-1.3321,-1.3322,-1.3325,-1.3326,-1.3313,-1.3313,-1.3313,0,-1.3425,-1.3415,-1.3405,-1.34,-1.3395,-1.3384,-1.338,-1.3373,-1.3359,-1.3356,-1.3353,-1.3337,-1.3327,-1.3321,-1.3323,-1.3318,-1.3318,-1.3314,-1.3321,-1.3322,-1.3323,-1.3326,-1.3327,-1.3313,-1.3313,-1.3313,-1.3313,0,-1.3424,-1.3418,-1.3416,-1.3405,-1.34,-1.3395,-1.3384,-1.338,-1.3374,-1.3367,-1.3361,-1.335,-1.334,-1.3338,-1.3331,-1.3332,-1.333,-1.3324,-1.3317,-1.3326,-1.3328,-1.3329,-1.3315,-1.3314,-1.3314,-1.3314,0,0,-1.3432,-1.3418,-1.3417,-1.3414,-1.3402,-1.3397,-1.3393,-1.3385,-1.3383,-1.3374,-1.3371,-1.3361,-1.3357,-1.335,-1.3343,-1.3342,-1.3349,-1.3336,-1.3336,-1.334,-1.3352,-1.3357,-1.3358,-1.3344,-1.3345,-1.3345,-1.3353,0,-1.3435,-1.3428,-1.342,-1.3415,-1.3411,-1.3402,-1.3399,-1.3392,-1.3385,-1.3381,-1.3373,-1.3367,-1.3361,-1.3357,-1.3357,-1.3349,-1.3351,-1.3348,-1.3342,-1.3342,-1.3346,-1.3359,-1.3364,-1.3372,-1.3354,-1.3354,-1.3354,0,-1.3436,-1.3431,-1.3426,-1.3418,-1.3416,-1.3413,-1.3407,-1.3402,-1.3395,-1.339,-1.3385,-1.3378,-1.3374,-1.3369,-1.3364,-1.3362,-1.336,-1.3356,-1.3356,-1.3355,-1.3349,-1.336,-1.3374,-1.3376,-1.3355,-1.3355,-1.3355,0,-1.3445,-1.3436,-1.3433,-1.343,-1.3419,-1.3418,-1.3414,-1.3406,-1.3403,-1.3397,-1.3395,-1.3389,-1.3386,-1.3381,-1.3373,-1.3369,-1.337,-1.3363,-1.3367,-1.3367,-1.3367,-1.3367,-1.3383,-1.3365,-1.3365,-1.3365,-1.3365,0,-1.3448,-1.3447,-1.3437,-1.3435,-1.3434,-1.3425,-1.3424,-1.3418,-1.3413,-1.341,-1.3402,-1.34,-1.3388,-1.3385,-1.3379,-1.3377,-1.3375,-1.3372,-1.3371,-1.3374,-1.3374,-1.3372,-1.3371,-1.3365,-1.3365,-1.3365,-1.3365,0,-1.3457,-1.345,-1.3447,-1.3439,-1.3437,-1.3436,-1.3429,-1.3428,-1.3422,-1.342,-1.3418,-1.3409,-1.3406,-1.3397,-1.339,-1.3386,-1.3387,-1.3383,-1.339,-1.3389,-1.3394,-1.3394,-1.3408,-1.3411,-1.3391,-1.3391,-1.3391,0,-1.346,-1.3459,-1.3452,-1.345,-1.3447,-1.3444,-1.3441,-1.3434,-1.3431,-1.3425,-1.3425,-1.3421,-1.3417,-1.3412,-1.3405,-1.34,-1.3397,-1.3403,-1.3396,-1.34,-1.3399,-1.3399,-1.34,-1.3404,-1.3404,-1.3404,-1.3405,0,-1.3467,-1.3465,-1.3461,-1.3458,-1.3456,-1.3453,-1.3449,-1.3448,-1.344,-1.3438,-1.3435,-1.3432,-1.3428,-1.3424,-1.3419,-1.3415,-1.3409,-1.3407,-1.3408,-1.3411,-1.3415,-1.3414,-1.3395,-1.3406,-1.3406,-1.3406,-1.3406,-1.3406,-1.3473,-1.3473,-1.3469,-1.3467,-1.3464,-1.3461,-1.346,-1.3456,-1.3454,-1.345,-1.3445,-1.3444,-1.3439,-1.3432,-1.3429,-1.3427,-1.3424,-1.3425,-1.3425,-1.3426,-1.3428,-1.3416,-1.3426,-1.3426,-1.3426,-1.3426,-1.3426,0,-1.3481,-1.3478,-1.3477,-1.3473,-1.3472,-1.3468,-1.3464,-1.3464,-1.3463,-1.3459,-1.3457,-1.3455,-1.3452,-1.3446,-1.3444,-1.3444,-1.3441,-1.3443,-1.3443,-1.3443,-1.343,-1.343,-1.3446,-1.3446,-1.3446,-1.3446,-1.3446,-1.3446,-1.3484,-1.3484,-1.3482,-1.3482,-1.3479,-1.3478,-1.3477,-1.3475,-1.3473,-1.3471,-1.347,-1.3467,-1.3463,-1.346,-1.3458,-1.3457,-1.3457,-1.346,-1.3458,-1.3445,-1.3444,-1.3442,-1.3442,-1.346,-1.346,-1.3471,-1.3471,-1.3471]}]]